Home > Weather > Dortmund > Past weeks

Flag for Germany Weather for the Past 2 Weeks in Dortmund, North Rhine-Westphalia, Germany

Now
52 °F

Sunny.


Feels Like: 47 °F
Forecast: 41 / 50 °F
Wind: 15 mph from Southwest

Location: Dortmund / Wickede

Current Time: Apr 29, 2016 at 2:59:26 PM

Latest Report: Apr 29, 2016 at 2:20 PM


Visibility: 10 mi

Pressure: 29.95 "Hg

Humidity: 44%

Dew Point: 30 °F

Location of DortmundLocation

Historic Weather in Dortmund — Graph

°F

Dortmund Temperature Yesterday

Maximum temperature yesterday: 48 °F (at 4:20 PM)
Minimum temperature yesterday: 36 °F (at 5:20 AM)
Average temperature yesterday: 42 °F

High & Low Weather Summary for the Past Weeks

 TemperatureHumidityPressure
High63 °F (Apr 21, 4:50 PM)93% (Apr 20, 7:20 AM)30.48 "Hg (Apr 20, 7:20 AM)
Low32 °F (Apr 20, 5:50 AM)33% (Apr 20, 6:50 PM)29.45 "Hg (Apr 26, 1:50 PM)
Average46 °F64%29.92 "Hg
* Reported Apr 14 1:20 PM — Apr 29 1:20 PM, Dortmund, Weather by CustomWeather, © 2016

Note: Actual official high and low records may vary slightly from our data, if they occured in-between our weather recording intervals... More about our weather records

Advertising

Dortmund Weather History for the Previous 24 Hours

Scroll right to see more
 ConditionsComfort  
Time TempWeatherWind HumidityBarometerVisibility
1:20 PM
Fri, Apr 29
52 °FPassing clouds.15 mph44%29.92 "HgN/A
12:50 PM52 °FSunny.18 mph44%29.95 "Hg10 mi
12:20 PM50 °FPartly sunny.17 mph47%29.92 "HgN/A
11:50 AM50 °FPartly sunny.16 mph50%29.95 "HgN/A
11:20 AM50 °FPartly sunny.17 mph50%29.92 "HgN/A
10:50 AM50 °FScattered clouds.20 mph47%29.92 "HgN/A
10:20 AM50 °FSunny.22 mph54%29.92 "Hg10 mi
9:50 AM48 °FSunny.18 mph54%29.92 "Hg10 mi
9:20 AM46 °FSunny.18 mph53%29.95 "Hg10 mi
8:50 AM45 °FSunny.16 mph57%29.95 "Hg10 mi
8:20 AM43 °FSunny.15 mph61%29.95 "Hg10 mi
7:50 AM41 °FSunny.14 mph66%29.92 "Hg10 mi
7:20 AM41 °FSunny.13 mph66%29.92 "Hg10 mi
6:50 AM39 °FClear.12 mph70%29.92 "Hg10 mi
6:20 AM39 °FClear.12 mph70%29.92 "Hg10 mi
5:50 AM39 °FClear.10 mph70%29.92 "Hg10 mi
5:20 AM37 °FClear.10 mph75%29.95 "Hg10 mi
9:50 PM
Thu, Apr 28
39 °FClear.9 mph81%29.98 "Hg10 mi
9:20 PM39 °FSunny.7 mph81%29.98 "Hg10 mi
8:50 PM39 °FSunny.9 mph75%29.98 "Hg10 mi
8:20 PM39 °FScattered showers. Passing clouds.8 mph81%29.98 "HgN/A
7:50 PM41 °FScattered clouds.9 mph70%29.98 "HgN/A
7:20 PM41 °FScattered showers. Partly sunny.7 mph76%29.98 "HgN/A
6:50 PM41 °FSprinkles. Clear.14 mph70%29.98 "HgN/A
6:20 PM46 °FSunny.10 mph50%29.95 "Hg10 mi
5:50 PM48 °FSunny.13 mph43%29.95 "Hg10 mi
5:20 PM48 °FPassing clouds.14 mph54%29.95 "HgN/A
4:50 PM48 °FScattered showers. Scattered clouds.6 mph50%29.95 "HgN/A
4:20 PM48 °FScattered clouds.8 mph54%29.95 "HgN/A
3:50 PM46 °FScattered clouds.7 mph57%29.95 "HgN/A
2:50 PM46 °FPassing clouds.6 mph50%29.95 "HgN/A
2:20 PM45 °FPartly sunny.8 mph66%29.98 "HgN/A
Weather by CustomWeather, © 2016

See weather overviewHow to use our weather pages